[[{"header":{"parameterUnit":"m.s-1","parameterCategory":1,"la1":30.2991,"la2":30.254,"lo1":-89.0895,"lo2":-89.0444,"dy":0.0017,"dx":0.0017,"nx":28,"ny":28,"refTime":"2023-08-09T09:00:00:Z","depth":0,"parameterNumber":2,"parameterNumberName":"U-component_of_WINDS"},"data":[0,0,0,0,0,0,0,0,0,0,0,0,0,0,0,0,0,0,0,0,0,0,0,0,0,0,0,0,0,0,0,0,0,0,0,0,0,0,0,0,0,0,0,0,0,0,0,0,0,0,0,0,0,0,0,0,0,0,6.4209,6.421,0,6.4349,6.4351,6.4353,6.428,6.4276,6.4272,6.4269,6.4411,6.4418,6.4425,0,0,0,0,0,0,0,0,0,0,0,0,0,6.3873,6.3879,6.4208,6.421,6.4212,6.4349,6.4351,6.4353,6.4281,6.4276,6.4271,6.4267,6.4408,6.4417,6.4426,0,0,0,0,0,0,0,0,0,0,0,0,0,6.4017,6.3881,6.4208,6.4192,6.4192,6.4349,6.4351,6.4353,6.4281,6.4276,6.427,6.4265,6.4406,6.4416,6.4427,6.4606,0,0,6.446,6.4465,0,0,0,0,0,0,0,0,6.4008,6.4029,6.4193,6.4194,6.4194,6.4291,6.4285,6.4438,6.4283,6.4248,6.4269,6.4262,6.4375,6.4388,6.4427,6.4613,6.4619,6.4461,6.4468,6.4472,6.4476,0,0,0,0,0,0,0,6.3999,6.4022,6.4264,6.4195,6.4196,6.4177,6.4191,6.4313,6.4341,6.425,6.4245,6.4263,6.4375,6.4417,6.443,6.4621,6.4461,6.4471,6.4477,6.4481,6.4956,6.4961,0,0,0,0,0,0,6.399,6.4015,6.426,6.4268,6.4086,6.4188,6.4203,6.4266,6.434,6.4346,6.4268,6.4259,6.4401,6.4417,6.4435,6.4645,6.4472,6.4483,6.4489,6.495,6.4957,6.4964,0,0,0,0,0,0,6.3983,6.4012,6.4254,6.414,6.4169,6.4199,6.427,6.4271,6.4313,6.4353,6.4357,6.4306,6.4397,6.4419,6.4563,6.4649,6.4487,6.4497,6.4943,6.4952,6.496,6.5071,0,0,0,0,0,0,6.3974,6.401,6.408,6.4142,6.4176,6.4382,6.4275,6.4278,6.4333,6.4323,6.439,6.4395,6.4394,6.4547,6.4574,6.4661,6.4506,6.4935,6.4947,6.4957,6.506,6.5083,6.5103,0,0,0,0,0,6.3962,6.4106,6.4084,6.4114,6.4264,6.4387,6.4406,6.4402,6.434,6.4409,6.4434,6.4393,6.4637,6.4563,6.4592,6.4684,6.4929,6.4943,6.4957,6.505,6.5078,6.5102,0,0,0,0,0,0,6.4053,6.4114,6.409,6.4259,6.4318,6.4374,6.4461,6.4433,6.4511,6.4498,6.449,6.4506,6.4654,6.4684,6.4601,6.4859,6.4773,6.4793,6.4834,6.4861,6.4882,6.487,6.4515,0,0,0,0,0,6.4092,6.4189,6.4237,6.4381,6.4412,6.4432,6.4485,6.4478,6.4538,6.4563,6.4598,6.4658,6.4747,6.4806,6.4891,6.5065,6.5076,6.5142,6.5164,6.5181,6.5197,6.5287,6.5316,6.5008,6.5008,6.5008,0,0,6.4175,6.4221,6.4282,6.44,6.4445,6.4543,6.4453,6.4561,6.4633,6.4579,6.4716,6.4744,6.481,6.4968,6.504,6.4998,6.5285,6.5198,6.5212,6.5219,6.5304,6.5333,6.5359,6.5018,6.5016,6.5015,0,0,6.4375,6.4421,6.4544,6.4591,6.466,6.4672,6.4702,6.4762,6.4778,6.4916,6.4877,6.4961,6.5117,6.5164,6.5208,6.5424,6.5388,6.5452,6.5563,6.565,6.5674,6.5696,6.5769,6.5795,6.5469,6.547,6.547,0,6.4469,6.4616,6.4611,6.4721,6.4773,6.4729,6.4852,6.4897,6.4991,6.5026,6.4978,6.517,6.5211,6.5378,6.543,6.5469,6.55,6.5443,6.5672,6.5693,6.5713,6.5782,6.581,6.5477,6.5476,6.5475,6.5474,0,6.4725,6.4828,6.4919,6.5009,6.5071,6.5188,6.5198,6.5262,6.5249,6.5265,6.5404,6.5452,6.5544,6.5584,6.5572,6.5748,6.5719,6.5672,6.5584,6.5749,6.5814,6.5841,6.5487,6.5484,6.5482,6.548,0,0,6.4986,6.5071,6.5104,6.5143,6.5215,6.5293,6.5407,6.5497,6.5549,6.5615,6.5707,6.5839,6.5795,6.5845,6.5839,6.5916,6.6079,6.5859,6.586,6.5894,6.6271,6.6303,6.6334,6.6057,6.6062,6.6066,6.6263,0,6.5187,6.5385,6.5383,6.5566,6.5658,6.5617,6.5715,6.5769,6.5787,6.5867,6.5887,6.5978,6.5916,6.5945,6.602,6.6043,6.6153,6.6029,6.6139,6.6143,6.612,6.6369,6.6404,6.6588,6.6289,6.6294,6.6297,0,6.5449,6.5522,6.5714,6.577,6.5808,6.5897,6.5977,6.6055,6.6114,6.6122,6.6177,6.6158,6.627,6.6182,6.6335,6.625,6.6295,6.6313,6.632,6.6327,6.6227,6.6378,6.6647,6.6673,6.6338,6.6334,6.6331,0,6.5614,6.5761,6.5894,6.5929,6.5999,6.6061,6.6093,6.6147,6.62,6.627,6.6304,6.6387,6.6432,6.6495,6.6497,6.6434,6.665,6.6563,6.6657,6.6657,6.6702,6.6698,6.6977,6.6738,6.6737,6.6737,6.6736,0,6.5837,6.5955,6.5968,6.605,6.6179,6.6176,6.6304,6.633,6.6378,6.6461,6.6432,6.6511,6.6511,6.6591,6.6594,6.6718,6.6739,6.6746,6.6745,6.6747,6.6745,6.6773,6.6759,6.6744,6.6742,6.6741,6.674,0,6.6043,6.6057,6.6198,6.6252,6.6268,6.6361,6.6406,6.6482,6.6498,6.6604,6.6629,6.6652,6.6745,6.6754,6.6862,6.6864,6.7012,6.6999,6.6991,6.6988,6.7079,6.7069,6.7383,6.7422,6.7161,6.7164,6.7166,0,6.6182,6.6272,6.6335,6.6389,6.6424,6.6512,6.6566,6.6565,6.6622,6.6695,6.6761,6.6851,6.6922,6.7071,6.7097,6.7178,6.7164,6.7269,6.7176,6.7174,6.7161,6.7154,6.7161,6.7286,6.7289,6.7291,6.7293,0,6.6427,6.6429,6.6508,6.659,6.6654,6.6718,6.6778,6.6824,6.683,6.6895,6.6989,6.7044,6.7153,6.7241,6.7321,6.7351,6.7322,6.7322,6.7347,6.7348,6.7339,6.7341,6.7036,6.7314,6.7312,6.7311,6.7309,6.7309,6.6601,6.6677,6.6733,6.6821,6.6866,6.6921,6.6994,6.7018,6.7097,6.7186,6.7181,6.7283,6.7337,6.7441,6.7478,6.7557,6.7521,6.7559,6.7568,6.7576,6.7583,6.7329,6.7572,6.7571,6.7571,6.757,6.757,0,6.6841,6.6874,6.6956,6.7039,6.7108,6.7076,6.714,6.7198,6.7289,6.7343,6.7413,6.7519,6.7604,6.7636,6.7718,6.7775,6.7763,6.7796,6.779,6.7796,6.7612,6.758,6.7803,6.7803,6.7803,6.7803,6.7803,6.7803,6.6973,6.7099,6.7107,6.7254,6.7286,6.7386,6.7425,6.7475,6.7517,6.7637,6.7707,6.7728,6.7772,6.7856,6.7931,6.7939,6.7968,6.8006,6.8007,6.7834,6.781,6.7787,6.7757,6.8013,6.8014,6.8184,6.8185,6.8186]},{"header":{"parameterUnit":"m.s-1","parameterCategory":1,"la1":30.2991,"la2":30.254,"lo1":-89.0895,"lo2":-89.0444,"dy":0.0017,"dx":0.0017,"nx":28,"ny":28,"refTime":"2023-08-09T09:00:00:Z","depth":0,"parameterNumber":3,"parameterNumberName":"V-component_of_WINDS"},"data":[0,0,0,0,0,0,0,0,0,0,0,0,0,0,0,0,0,0,0,0,0,0,0,0,0,0,0,0,0,0,0,0,0,0,0,0,0,0,0,0,0,0,0,0,0,0,0,0,0,0,0,0,0,0,0,0,0,0,4.6484,4.6485,0,4.6629,4.6631,4.6632,4.6626,4.6624,4.6622,4.662,4.6767,4.6772,4.6778,0,0,0,0,0,0,0,0,0,0,0,0,0,4.6196,4.6201,4.6483,4.6485,4.6487,4.6629,4.6631,4.6633,4.6627,4.6624,4.6622,4.6619,4.6765,4.6772,4.6779,0,0,0,0,0,0,0,0,0,0,0,0,0,4.6329,4.6203,4.6483,4.6501,4.6504,4.6628,4.6631,4.6633,4.6627,4.6624,4.6621,4.6618,4.6762,4.6771,4.678,4.6895,0,0,4.6806,4.681,0,0,0,0,0,0,0,0,4.6321,4.6339,4.6497,4.65,4.6504,4.6606,4.6583,4.6721,4.6628,4.658,4.662,4.6617,4.6716,4.6728,4.6762,4.6902,4.6908,4.6807,4.6812,4.6816,4.6818,0,0,0,0,0,0,0,4.6312,4.6333,4.6541,4.6499,4.6503,4.65,4.6516,4.6609,4.6663,4.6584,4.6584,4.6602,4.6717,4.6754,4.6765,4.691,4.6807,4.6814,4.682,4.6823,4.7148,4.7152,0,0,0,0,0,0,4.6299,4.6325,4.6536,4.6545,4.6403,4.6508,4.6526,4.6576,4.6662,4.6672,4.6604,4.6601,4.674,4.6755,4.677,4.6909,4.6816,4.6824,4.6829,4.7145,4.7149,4.7153,0,0,0,0,0,0,4.6293,4.6318,4.653,4.6435,4.6462,4.6516,4.6574,4.6581,4.6618,4.6677,4.6687,4.6632,4.6738,4.6758,4.6863,4.6914,4.6828,4.6836,4.7141,4.7146,4.7151,4.7189,0,0,0,0,0,0,4.6285,4.6316,4.6362,4.6437,4.6467,4.6622,4.6577,4.6586,4.6633,4.663,4.6706,4.6715,4.6737,4.685,4.6872,4.6925,4.6843,4.7137,4.7143,4.7149,4.7183,4.7195,4.7204,0,0,0,0,0,4.6275,4.6367,4.6364,4.639,4.6526,4.6625,4.6643,4.6667,4.6637,4.6682,4.672,4.6713,4.6905,4.6861,4.6886,4.6942,4.7134,4.7141,4.7149,4.7179,4.7192,4.7204,0,0,0,0,0,0,4.6296,4.6377,4.6375,4.6494,4.6553,4.6624,4.6682,4.6681,4.675,4.6744,4.677,4.6787,4.6892,4.6928,4.6877,4.7056,4.7015,4.7028,4.703,4.7043,4.7054,4.7042,4.685,0,0,0,0,0,4.6315,4.639,4.6456,4.6554,4.6584,4.6628,4.6673,4.6686,4.6748,4.6773,4.6818,4.6878,4.6951,4.6999,4.707,4.7188,4.7203,4.7238,4.7249,4.7257,4.7268,4.7331,4.7346,4.7178,4.7178,4.7178,0,0,4.6354,4.6407,4.6453,4.656,4.6607,4.6683,4.6649,4.6732,4.6788,4.6785,4.6887,4.6922,4.699,4.7101,4.7153,4.7134,4.7318,4.7267,4.7273,4.728,4.734,4.7356,4.737,4.7183,4.7182,4.7182,0,0,4.6463,4.6512,4.6599,4.6646,4.6718,4.6747,4.6767,4.6839,4.6862,4.6965,4.6964,4.703,4.7157,4.7205,4.7245,4.7371,4.7366,4.7393,4.7448,4.7508,4.7522,4.7533,4.7576,4.7592,4.7403,4.7404,4.7404,0,4.6503,4.6618,4.6643,4.6726,4.6772,4.6773,4.6859,4.6904,4.6995,4.7026,4.7004,4.7162,4.7208,4.7329,4.7359,4.7393,4.7416,4.7384,4.7518,4.753,4.7541,4.7583,4.7599,4.7406,4.7406,4.7406,4.7405,0,4.6662,4.6742,4.6803,4.6891,4.6944,4.7028,4.7064,4.7114,4.7122,4.7152,4.7255,4.731,4.7391,4.7421,4.7431,4.7544,4.7529,4.7513,4.7472,4.756,4.7599,4.7615,4.741,4.7409,4.7408,4.7408,0,0,4.679,4.6889,4.6911,4.695,4.7029,4.709,4.7173,4.7253,4.7295,4.7357,4.7426,4.7533,4.7517,4.7563,4.7577,4.7631,4.7724,4.7607,4.7609,4.7625,4.785,4.7861,4.7879,4.7721,4.7724,4.7727,4.7843,0,4.6907,4.7055,4.7079,4.7209,4.7281,4.7282,4.7354,4.7409,4.7439,4.7504,4.7536,4.761,4.7585,4.7612,4.7665,4.7701,4.7769,4.7693,4.7784,4.7787,4.7766,4.79,4.7913,4.8021,4.7859,4.7862,4.7863,0,4.7063,4.713,4.7267,4.7333,4.7365,4.7429,4.7503,4.7566,4.7627,4.7645,4.7696,4.7703,4.7787,4.7743,4.7858,4.7806,4.7844,4.7867,4.7871,4.788,4.783,4.7911,4.8056,4.8071,4.7888,4.7886,4.7884,0,4.7141,4.7264,4.7362,4.7396,4.7476,4.7521,4.7556,4.7615,4.7661,4.7725,4.7754,4.7827,4.7867,4.7922,4.7948,4.7914,4.8061,4.8019,4.8076,4.8076,4.8107,4.8104,4.8259,4.8133,4.8133,4.8133,4.8132,0,4.7268,4.7352,4.7398,4.7458,4.755,4.7575,4.7666,4.77,4.7752,4.7817,4.7822,4.7882,4.7913,4.7978,4.7999,4.809,4.8108,4.8123,4.8127,4.8122,4.812,4.8147,4.814,4.8137,4.8136,4.8135,4.8134,0,4.7371,4.7405,4.7511,4.7578,4.7597,4.7662,4.7719,4.7776,4.7805,4.7887,4.7908,4.7952,4.8029,4.806,4.8154,4.8167,4.8271,4.827,4.8251,4.8252,4.8307,4.83,4.8483,4.8507,4.8367,4.8368,4.8369,0,4.7449,4.7514,4.7587,4.7632,4.7668,4.774,4.7786,4.7813,4.7861,4.7934,4.7982,4.8058,4.8121,4.8242,4.8282,4.8353,4.8353,4.8412,4.8364,4.8356,4.8353,4.8348,4.8354,4.8421,4.8422,4.8424,4.8424,0,4.7585,4.7598,4.7666,4.7738,4.7794,4.7852,4.7909,4.7945,4.798,4.8033,4.8111,4.816,4.8255,4.833,4.8403,4.8438,4.8436,4.8439,4.8456,4.8451,4.8436,4.8443,4.8274,4.8435,4.8434,4.8433,4.8433,4.8432,4.7677,4.7733,4.7793,4.7867,4.7913,4.7966,4.8022,4.8058,4.8124,4.8203,4.8215,4.8298,4.8355,4.8453,4.8491,4.8555,4.854,4.8564,4.857,4.8576,4.8579,4.8427,4.8568,4.8568,4.8568,4.8568,4.8568,0,4.7811,4.785,4.7918,4.7997,4.8055,4.8049,4.8111,4.816,4.8233,4.8287,4.8348,4.8437,4.8509,4.8554,4.8627,4.8669,4.867,4.8687,4.8684,4.8691,4.8589,4.8567,4.8685,4.8685,4.8685,4.8685,4.8685,4.8685,4.7888,4.7982,4.8002,4.8118,4.8155,4.8237,4.8273,4.8321,4.8364,4.8463,4.8523,4.8552,4.8602,4.8678,4.8743,4.8754,4.878,4.8798,4.8808,4.8711,4.8699,4.8687,4.8666,4.8804,4.8804,4.8905,4.8906,4.8906]}]]